Location: Noyers
(47.2770°N, 1.4032°E)
Time: 23:24:10
(UTC+00:00)

CZ-2C R/B - Pass Details

Date: 15 May 2026
Orbit: 702 x 901 km, 98.2° (Epoch: 11 June)

Event Time Altitude Azimuth Distance (km) Brightness Sun altitude
Rises 23:00:35 0° 20° (NNE) 3,507 7.3 -22.7°
Reaches altitude 10° 23:03:13 10° 30° (NNE) 2,576 6.3 -22.8°
Maximum altitude 23:08:29 35° 95° (E) 1,411 4.2 -23.0°
Enters shadow 23:09:29 33° 116° (ESE) 1,468 4.1 -23.0°
